www.pogodaiklimat.ru

Погода и климат >> Архив погоды >> Кувейт >> Mitribah


ПОГОДА в Mitribah

  • Прогноз погоды в Mitribah
  • Монитор погоды в Mitribah
  • Климат города

АРХИВ ПОГОДЫ в Mitribah

Время (UTC), дата Ветер
(напр.,м/с)
 
Видим.   Явления Облачность Т
(С)
Тd
(С)
f
(%)
Тe
(С)
Тes
(С)
Комфортность P
(гПа)
Po
(гПа)
Тmin
(С)
Tmax
(С)
R
(мм)
R24
(мм)
S
(см)
03 9.07 З 6-7
{9}
20 км н/о +32.8 +4.9 17 +30 +30 жарко 1000.9 1001.0
06 9.07 СЗ 10-13
{13}
17 км н/о +43.7 +3.4 9 +41 +41 опасность
перегрева
1000.7 1001.0
09 9.07 З 11-16
{17}
14 км н/о +47.4 +5.7 8 +44 +44 опасность
перегрева
999.4 999.0
12 9.07 З 13-17
{21}
3400 м дым н/о +47.7 +4.1 7 +44 +44 опасность
перегрева
997.5 998.0
15 9.07 СЗ 12-16
{20}
2800 м дым н/о +43.9 +2.4 8 +40 +40 очень
жарко
997.6 998.0
18 9.07 З 10-13
{20}
2500 м дым н/о +39.9 +2.7 10 +36 +36 очень
жарко
998.7 999.0
21 9.07 З 9-11
{13}
20 км н/о +35.1 +1.3 12 +32 +32 жарко 998.6 999.0 +31.1 +48.7
00 10.07 З 8-10
{13}
20 км н/о +32.6 +0.8 13 +29 +29 жарко 998.1 998.0
03 10.07 З 7-9
{12}
20 км н/о +31.3 +1.0 14 +28 +28 жарко 999.0 999.0
06 10.07 СЗ 13-16
{16}
9000 м дым н/о +41.1 +2.3 9 +38 +38 очень
жарко
998.3 998.0
09 10.07 СЗ 11-17
{17}
16 км н/о +47.1 +4.8 8 +44 +44 опасность
перегрева
997.1 997.0
12 10.07 СЗ 10-13
{17}
14 км н/о +48.2 +4.8 8 +45 +45 опасность
перегрева
995.8 996.0
15 10.07 З 9-11
{15}
20 км н/о +45.2 +1.4 7 +42 +42 опасность
перегрева
995.9 996.0
18 10.07 З 11-14
{15}
2300 м дым н/о +39.8 +1.3 9 +36 +36 очень
жарко
996.9 997.0
21 10.07 З 9-12
{15}
17 км н/о +36.7 +3.5 13 +34 +34 очень
жарко
997.4 997.0 +30.6 +49.0
00 11.07 З 7-9
{15}
15 км н/о +33.2 +2.5 14 +30 +30 жарко 997.4 997.0
03 11.07 З 9-10
{12}
14 км н/о +33.7 +1.6 13 +31 +31 жарко 998.0 998.0
06 11.07 СЗ 12-15
{16}
6000 м дым н/о +42.5 +0.4 7 +39 +39 очень
жарко
997.5 998.0
09 11.07 СЗ 9-12
{16}
18 км н/о +48.6 +5.6 8 +46 +46 опасность
перегрева
996.5 997.0
12 11.07 СЗ 4-6
{16}
19 км н/о +49.8 +4.5 7 +47 +47 опасность
перегрева
994.8 995.0
15 11.07 З 8-10
{11}
18 км н/о +46.9 +1.8 7 +44 +44 опасность
перегрева
994.4 994.0
18 11.07 З 9-11
{14}
4900 м дым н/о +41.1 +5.5 12 +38 +38 очень
жарко
996.5 997.0
21 11.07 З 9-12
{12}
12 км н/о +36.8 +6.1 15 +34 +34 очень
жарко
996.3 996.0 +32.6 +50.8
00 12.07 З 12-15
{15}
8000 м дым н/о +35.6 +4.4 14 +33 +33 жарко 995.2 995.0
03 12.07 З 10-13
{14}
11 км н/о +34.9 +3.7 14 +32 +32 жарко 996.1 996.0
06 12.07 СЗ 12-15
{17}
8000 м дым н/о +42.7 +2.6 9 +39 +39 очень
жарко
996.0 996.0
09 12.07 СЗ 10-13
{16}
12 км н/о +47.6 +6.8 9 +45 +45 опасность
перегрева
994.6 995.0
12 12.07 СЗ 10-13
{16}
15 км н/о +49.4 +5.1 7 +46 +46 опасность
перегрева
993.3 993.0
15 12.07 З 13-16
{16}
5000 м дым н/о +45.3 +2.7 8 +42 +42 опасность
перегрева
993.0 993.0
18 12.07 З 11-13
{17}
1300 м дым н/о +40.5 +4.3 11 +37 +37 очень
жарко
995.1 995.0
21 12.07 З 9-11
{13}
19 км н/о +36.5 +5.9 15 +34 +34 очень
жарко
995.1 995.0 +34.1 +49.9
00 13.07 З 8-10
{13}
20 км н/о +34.0 +5.3 17 +32 +32 жарко 994.9 995.0
03 13.07 З 8-9
{10}
19 км н/о +32.4 +5.8 19 +30 +30 жарко 995.6 996.0
06 13.07 СЗ 11-13
{13}
18 км н/о +41.0 +5.9 12 +38 +38 очень
жарко
995.9 996.0
09 13.07 СЗ 11-15
{16}
14 км н/о +47.3 +5.8 9 +45 +45 опасность
перегрева
994.4 994.0
12 13.07 З 13-17
{17}
11 км дым н/о +48.3 +3.6 7 +45 +45 опасность
перегрева
993.5 994.0
15 13.07 СЗ 11-14
{17}
6000 м дым н/о +44.1 +5.1 10 +41 +41 опасность
перегрева
993.8 994.0
18 13.07 З 6-8
{17}
8000 м дым н/о +38.6 +5.4 13 +36 +36 очень
жарко
996.1 996.0
21 13.07 З 5-7
{10}
14 км н/о +35.3 +5.4 16 +33 +33 жарко 996.1 996.0 +31.4 +49.1
00 14.07 З 6-7
{10}
16 км н/о +32.1 +6.3 20 +30 +30 жарко 995.0 995.0
03 14.07 З 5-6
{7}
19 км н/о +31.3 +6.2 21 +30 +30 жарко 996.2 996.0
06 14.07 З 7-9
{10}
19 км н/о +41.7 +5.3 11 +39 +39 очень
жарко
997.0 997.0
09 14.07 З 9-13
{13}
18 км н/о +47.7 +6.5 9 +45 +45 опасность
перегрева
995.9 996.0
12 14.07 З 8-13
{14}
16 км н/о +48.0 +4.0 7 +45 +45 опасность
перегрева
994.8 995.0
15 14.07 З 8-10
{14}
20 км н/о +44.6 +0.7 7 +41 +41 опасность
перегрева
994.8 995.0
18 14.07 З 4-5
{14}
20 км н/о +37.2 -0.3 9 +33 +33 жарко 996.6 997.0
21 14.07 З 4-4
{5}
18 км н/о +33.5 +0.1 12 +30 +30 жарко 996.5 997.0 +30.1 +49.3
00 15.07 ЮЗ 4-4
{5}
19 км н/о +31.5 +0.9 14 +29 +29 жарко 996.2 996.0
03 15.07 ЮЗ 6-8
{9}
20 км н/о +29.7 +1.0 16 +27 +27 жарко 997.7 998.0
06 15.07 З 7-9
{9}
19 км н/о +43.1 +2.0 8 +40 +40 очень
жарко
997.5 998.0
09 15.07 ЮЗ 4-7
{9}
20 км н/о +45.0 +5.2 9 +42 +42 опасность
перегрева
996.7 997.0
12 15.07 ЮЗ 6-11
{12}
19 км н/о +46.3 +5.6 9 +44 +44 опасность
перегрева
995.2 995.0
15 15.07 З 7-9
{14}
19 км н/о +44.2 +4.8 9 +41 +41 опасность
перегрева
994.5 995.0
18 15.07 З 7-9
{14}
13 км н/о +39.4 +3.1 11 +36 +36 очень
жарко
996.2 996.0
21 15.07 З 4-5
{9}
17 км н/о +35.6 +5.2 15 +33 +33 жарко 996.0 996.0 +28.7 +47.4
00 16.07 З 5-6
{9}
19 км н/о +32.9 +4.9 17 +30 +30 жарко 995.8 996.0

 

Местоположение метеостанции Mitribah (Кувейт): широта 29.82 долгота 47.37 высота над уровнем моря 119 м.

В архиве по умолчанию представлена погода в Mitribah за последнюю неделю. Архивные данные за месяц целиком и за предыдущие месяцы, начиная с января 2011 года, Вы можете получить, выбрав интересующий диапазон дат из раскрывающегося списка и нажав кнопку "Ввод!".


*Определитесь, кто Вы:
робот инопланетянин человек

Внимание! Время в таблицах - всемирное. Для получения местного времени необходимо прибавить поправку, которая в Mitribah равна 3 ч.

Смотрите также архив погоды в соседних городах и на ближайших метеорологических станциях:

Погода в Jal Aliyah (Кувейт) (31 км)
Погода в Abdaly (Кувейт) (43 км)
Погода в Sabriyah (Кувейт) (47 км)
Погода в Jahra (Кувейт) (63 км)
Погода в Abraque Al Habari (Кувейт) (68 км)
Погода в Sulaibiya (Кувейт) (70 км)
Погода в Experimental Farm (Кувейт) (81 км)
Погода в Minagish (Кувейт) (85 км)
Погода в Kuwait City (Кувейт) (85 км)
Погода в Basrah Airport (Ирак) (87 км)

Пояснения к столбцам:

Ветер - указаны скорость ветра в м/с - средняя за 10 мин, порывы в срок и между сроками (в фигурных скобках) и направление, откуда дует ветер: С - северный, СВ - северо-восточный, В - восточный, ЮВ - юго-восточный, Ю - южный, ЮЗ - юго-западный, З - западный, СЗ - северо-западный.
Видимость - горизонтальная дальность видимости в метрах или километрах. При видимости от 1 до 10 км при отсутствии осадков обычно наблюдается дымка, при ухудшении видимости до 1 км и менее - туман. В сухую погоду видимость может ухудшаться дымом, пылью или мглою.
Явления - указаны атмосферные явления, наблюдавшиеся в срок или в последний час перед сроком; фигурными скобками обозначены явления, наблюдавшиеся между сроками (за 1-3 часа до срока); квадратными скобками обозначены град или гололедные отложения с указанием их диаметра в мм.
Облачность - указаны через наклонную черту общая и нижняя облачность в баллах и высота нижней границы облаков в метрах; квадратными скобками обозначены формы облаков: Ci - перистые, Cs - перисто-слоистые, Cc - перисто-кучевые, Ac - высококучевые, As - высокослоистые, Sc - слоисто-кучевые, Ns - слоисто-дождевые, Cu - кучевые, Cb - кучево-дождевые. Подробнее классификацию облаков см. в Атласе облаков (PDF).
T - Температура воздуха - температура, измеренная на высоте 2 м над землей.
Td - Температура точки росы - температура, при понижении до которой содержащийся в воздухе водяной пар достигнет насыщения.
f - Относительная влажность воздуха - влажноcть воздуха, измеренная на высоте 2 м над землей.
Te - Эффективная температура - температура, которую ощущает одетый по сезону человек в тени. Характеристика душности погоды. При расчете учитывается влияние влажности воздуха и скорости ветра на теплоощущения человека.
Tes - Эффективная температура на солнце - температура, которую ощущает человек, с поправкой на солнечный нагрев. Характеристика знойности погоды. Зависит от высоты солнца над горизонтом, облачности и скорости ветра. Ночью, в пасмурную погоду, а также при ветре 12 м/с и более поправка равна нулю.
P - Атмосферное давление - приведенное к уровню моря атмосферное давление.
Po - Атмосферное давление - измеренное на уровне метеостанции атмосферное давление.
Tmin - Минимальная температура - минимум температуры воздуха на высоте 2 м над землей.
Tmax - Максимальная температура - максимум температуры воздуха на высоте 2 м над землей.
R - Количество осадков - Количество выпавших осадков за период времени, мм. При наведении курсора мыши на число - период времени, за который выпало указанное количество осадков.
R24 - Количество осадков - Количество выпавших осадков за 24 часа, мм.
S - Снежный покров - Высота снежного покрова, см. При наведении курсора мыши на число - состояние снежного покрова и степень покрытия местности в баллах.